Location: Habighorst
(52.7089°N, 10.2278°E)
Time: 14:31:10
(UTC+00:00)

Cosmos 2278 Rocket - Visible Passes

Search period start: 19 April 2026 00:00
Search period end: 29 April 2026 00:00
Orbit: 838 x 846 km, 71.0° (Epoch: 19 April)

Date Brightness Start Highest point End Pass type
(mag) Time Alt. Az. Time Alt. Az. Time Alt. Az.
19 Apr 3.3 19:23:16 10° NW 19:28:36 43° WSW 19:33:55 10° S visible
20 Apr 3.3 19:08:20 10° NW 19:13:43 45° WSW 19:19:04 10° S visible
25 Apr 5.3 19:41:27 10° W 19:42:02 10° W 19:42:37 10° W visible
26 Apr 5.2 19:25:53 10° W 19:27:11 11° W 19:28:27 10° WSW visible
